Flag for Australia Weather past 2 weeks in Ballarat, Victoria, Australia

Now
47 °F

Cool.


Feels Like: 41 °F
Forecast: 32 / 46 °F
Wind: 14 mph from West

Location: Sheoaks Aws

Current Time: Jul 30, 2015 at 11:14:28 PM

Latest Report: Jul 30, 2015 at 9:00 PM


Visibility: N/A

Pressure: 30.02 "Hg

Humidity: 86%

Dew point: 43 °F

Location of BallaratLocation

Historic Weather in Ballarat — Graph

°F

Ballarat temperature yesterday

Maximum temperature yesterday: 51 °F (at 12:00 PM)
Minimum temperature yesterday: 40 °F (at 5:00 AM)
Average temperature yesterday: 46 °F

Past Weeks' High & Low Weather Summary

 TemperatureHumidityPressure
High58 °F (Jul 24, 2:00 PM)100% (Jul 17, 3:00 AM)30.58 "Hg (Jul 17, 3:00 AM)
Low29 °F (Jul 19, 6:00 AM)50% (Jul 23, 2:00 PM)29.72 "Hg (Jul 25, 9:00 PM)
Average46 °F78%30.22 "Hg
* Reported Jul 15 9:00 PM — Jul 30 9:00 PM, Ballarat, Weather by CustomWeather, © 2015

Note: Actual official high and low records may vary slightly from our data, if they occured in-between our weather recording intervals... More about our weather records

Advertising

Ballarat weather history for previous 24 hours

 ConditionsComfort  
Time TempWeatherWind HumidityBarometerVisibility
9:00 PM
Thu, Jul 30
47 °FCool.14 mph86%30.02 "HgN/A
8:00 PM47 °FCool.16 mph86%29.98 "HgN/A
6:00 PM49 °FCool.26 mph69%29.88 "HgN/A
5:00 PM48 °FCool.23 mph71%29.87 "HgN/A
3:00 PM50 °FCool.26 mph58%29.86 "HgN/A
2:00 PM51 °FCool.24 mph53%29.89 "HgN/A
12:00 PM50 °FCool.29 mph55%29.95 "HgN/A
11:00 AM49 °FCool.26 mph62%30.00 "HgN/A
9:00 AM48 °FCool.24 mph62%30.04 "HgN/A
8:00 AM47 °FCool.23 mph65%30.06 "HgN/A
6:00 AM46 °FCool.21 mph65%30.09 "HgN/A
5:00 AM45 °FCool.16 mph68%30.11 "HgN/A
3:00 AM45 °FCool.17 mph68%30.18 "HgN/A
2:00 AM45 °FCool.14 mph68%30.21 "HgN/A
12:00 AM46 °FCool.9 mph67%30.27 "HgN/A
11:00 PM
Wed, Jul 29
46 °FCool.10 mph68%30.29 "HgN/A
Weather by CustomWeather, © 2015

See weather overviewHow to use our weather pages